Regional Weather Roundup
Issued by NWS

Home | Current Version | Previous Version | Graphics & Text | Print | Product List | Glossary Off
Versions: 1 2 3 4 5 6 7 8 9 10 11 12 13 14 15 16 17 18 19 20 21 22 23 24 25 26 27 28 29 30 31 32 33 34 35 36 37 38 39 40 41 42 43 44 45 46 47 48 49 50

000
ASUS43 KTOP 261508
RWRKS

WEATHER ROUNDUP FOR KANSAS
NATIONAL WEATHER SERVICE GOODLAND KS
900 AM CST MON JAN 26 2015

NOTE:  "FAIR" INDICATES FEW OR NO CLOUDS BELOW 12,000 FEET WITH NO
SIGNIFICANT WEATHER AND/OR OBSTRUCTIONS TO VISIBILITY.

KSZ001>006-013>018-027>032-041>047-261600-
NORTHWEST KANSAS

CITY           SKY/WX    TMP DP  RH WIND       PRES   REMARKS
GOODLAND       CLEAR     44  30  57 NW15      30.15R
HAYS           SUNNY     45  28  53 NW15      30.05R
HILL CITY      SUNNY     47  32  56 W12       30.07R
RUSSELL        SUNNY     38  32  79 SW9       30.02R
$$

KSZ061>065-074>080-084>089-261600-
SOUTHWEST KANSAS

CITY           SKY/WX    TMP DP  RH WIND       PRES   REMARKS
DODGE CITY     SUNNY     45  28  51 W14       30.11R
ELKHART          N/A    N/A N/A N/A MISG        N/A
GARDEN CITY    SUNNY     39  29  67 W14       30.13R WCI  31
GREAT BEND     SUNNY     45  32  61 NW13      30.06R
LIBERAL        MOSUNNY   43  30  61 W13       30.18R
PRATT          SUNNY     45  32  61 NW14      30.07S
$$

KSZ066>073-081>083-090>101-261600-
SOUTHEAST KANSAS

CITY           SKY/WX    TMP DP  RH WIND       PRES   REMARKS
CHANUTE        SUNNY     34  31  88 S9        30.05F
COFFEYVILLE    SUNNY     31  30  96 S7        30.08F
HUTCHINSON     SUNNY     38  29  70 W10       30.03S WCI  31
MEDICINE LODGE   N/A     36  28  73 W3        30.06S
NEWTON         SUNNY     36  27  69 W13       30.03S WCI  27
PARSONS        SUNNY     33  31  92 S6        30.07F
WICHITA INTL   MOSUNNY   38  30  73 SW7       30.04F
WICHITA JABRA  SUNNY     38  28  67 SW13      30.03F WCI  30
WICHITA MCCONL SUNNY     37  29  73 SW12      30.04F WCI  29
WINFIELD       SUNNY     37  31  78 SW6       30.07R
$$

KSZ007>012-019>026-033>040-048>060-102>105-261600-
NORTHEAST KANSAS

CITY           SKY/WX    TMP DP  RH WIND       PRES   REMARKS
CONCORDIA      SUNNY     37  30  75 W15       29.97S WCI  28
EMPORIA        SUNNY     37  32  82 SW7       30.01R
LAWRENCE       SUNNY     34  29  82 SW7       29.99F
MANHATTAN      SUNNY     37  30  75 SW8       30.00R
MARYSVILLE     SUNNY     36  30  80 W10       29.95S WCI  28
OLATHE IND     SUNNY     33  30  88 S14       29.99F WCI  23
OLATHE EXE     SUNNY     34  30  85 SW8       29.98F
SALINA         SUNNY     38  30  73 SW5       30.01F
TOPEKA BILLARD SUNNY     35  29  78 SW9       29.98F
TOPEKA FORBES  SUNNY     34  29  82 S10       29.97F WCI  26
$$



USA.gov is the U.S. government's official web portal to all federal, state and local government web resources and services.